When you browse on this site, cookies collect data to enhance your experience and personalize the content and advertising you see.
Visit our Privacy Policy to learn more. By continuing to use the site, you agree to this use of cookies and data.
  • en France
  • Liste des pays
  • À 7 jours
  • Température de l'eau
  • Carte météo
  • Widgets météo
  • user-avatar
    Se connecter

    Météo par heure à Hrazdan

    Ce jour, 2 Juin, Mardi

    Heure Température Précipitation Vent Pression Humidité
    00:00 +12°C° 0 mm 1 m/s 610 mmHg 51%
    01:00 +12°C° 0 mm 2 m/s 610 mmHg 52%
    02:00 +12°C° 0 mm 2 m/s 610 mmHg 52%
    03:00 +12°C° 0 mm 2 m/s 610 mmHg 55%
    04:00 +13°C° 0 mm 2 m/s 610 mmHg 57%
    05:00 +13°C° 0 mm 2 m/s 610 mmHg 60%
    06:00 +14°C° 0 mm 2 m/s 611 mmHg 62%
    07:00 +16°C° 0 mm 2 m/s 611 mmHg 56%
    08:00 +18°C° 0 mm 2 m/s 612 mmHg 51%
    09:00 +20°C° 0 mm 3 m/s 612 mmHg 45%
    10:00 +21°C° 0 mm 4 m/s 613 mmHg 44%
    11:00 +22°C° 0 mm 4 m/s 613 mmHg 42%
    12:00 +23°C° 0 mm 5 m/s 613 mmHg 41%
    13:00 +21°C° 0.9 mm 4 m/s 612 mmHg 49%
    14:00 +20°C° 0.9 mm 3 m/s 611 mmHg 56%
    15:00 +18°C° 0.9 mm 2 m/s 610 mmHg 63%
    16:00 +18°C° 0.3 mm 2 m/s 610 mmHg 66%
    17:00 +18°C° 0.3 mm 2 m/s 610 mmHg 69%
    18:00 +18°C° 0.3 mm 1 m/s 610 mmHg 73%
    19:00 +16°C° 0 mm 2 m/s 609 mmHg 74%
    20:00 +14°C° 0 mm 2 m/s 609 mmHg 75%
    21:00 +13°C° 0 mm 2 m/s 608 mmHg 76%
    22:00 +12°C° 0.1 mm 2 m/s 608 mmHg 75%
    23:00 +12°C° 0.1 mm 1 m/s 608 mmHg 74%

    Demain, 3 Juin, Mercredi

    Heure Température Précipitation Vent Pression Humidité
    00:00 +12°C° 0.1 mm 1 m/s 608 mmHg 72%
    01:00 +12°C° 0 mm 1 m/s 608 mmHg 70%
    02:00 +10°C° 0 mm 2 m/s 608 mmHg 69%
    03:00 +10°C° 0 mm 2 m/s 608 mmHg 67%
    04:00 +12°C° 0 mm 2 m/s 609 mmHg 65%
    05:00 +12°C° 0 mm 2 m/s 609 mmHg 64%
    06:00 +13°C° 0 mm 1 m/s 609 mmHg 62%
    07:00 +15°C° 0 mm 2 m/s 610 mmHg 57%
    08:00 +17°C° 0 mm 2 m/s 611 mmHg 51%
    09:00 +19°C° 0 mm 3 m/s 611 mmHg 46%
    10:00 +20°C° 0 mm 3 m/s 611 mmHg 45%
    11:00 +21°C° 0 mm 3 m/s 611 mmHg 43%
    12:00 +22°C° 0 mm 3 m/s 611 mmHg 42%
    13:00 +20°C° 0.6 mm 3 m/s 610 mmHg 52%
    14:00 +18°C° 0.6 mm 3 m/s 610 mmHg 62%
    15:00 +16°C° 0.6 mm 2 m/s 609 mmHg 72%
    16:00 +16°C° 0.3 mm 2 m/s 609 mmHg 71%
    17:00 +17°C° 0.3 mm 2 m/s 610 mmHg 70%
    18:00 +18°C° 0.3 mm 1 m/s 610 mmHg 69%
    19:00 +16°C° 0.1 mm 1 m/s 610 mmHg 70%
    20:00 +14°C° 0.1 mm 1 m/s 610 mmHg 71%
    21:00 +12°C° 0.1 mm 1 m/s 609 mmHg 72%
    22:00 +12°C° 0.2 mm 2 m/s 609 mmHg 71%
    23:00 +10°C° 0.2 mm 2 m/s 610 mmHg 70%

    Après-demain, 4 Juin, Jeudi

    Heure Température Précipitation Vent Pression Humidité
    00:00 +10°C° 0.2 mm 2 m/s 610 mmHg 69%
    01:00 +9°C° 0 mm 2 m/s 610 mmHg 65%
    02:00 +8°C° 0 mm 2 m/s 609 mmHg 62%
    03:00 +8°C° 0 mm 2 m/s 609 mmHg 58%
    04:00 +9°C° 0 mm 2 m/s 610 mmHg 59%
    05:00 +9°C° 0 mm 2 m/s 611 mmHg 60%
    06:00 +10°C° 0 mm 2 m/s 611 mmHg 60%
    07:00 +13°C° 0 mm 2 m/s 612 mmHg 53%
    08:00 +15°C° 0 mm 2 m/s 612 mmHg 47%
    09:00 +18°C° 0 mm 2 m/s 613 mmHg 40%
    10:00 +19°C° 0 mm 2 m/s 613 mmHg 39%
    11:00 +19°C° 0 mm 2 m/s 613 mmHg 38%
    12:00 +20°C° 0 mm 3 m/s 614 mmHg 37%
    13:00 +21°C° 0 mm 3 m/s 614 mmHg 37%
    14:00 +21°C° 0 mm 3 m/s 614 mmHg 37%
    15:00 +21°C° 0 mm 3 m/s 614 mmHg 37%
    16:00 +21°C° 0 mm 2 m/s 613 mmHg 43%
    17:00 +20°C° 0 mm 2 m/s 613 mmHg 49%
    18:00 +20°C° 0 mm 1 m/s 613 mmHg 56%
    19:00 +18°C° 0 mm 1 m/s 613 mmHg 56%
    20:00 +15°C° 0 mm 1 m/s 612 mmHg 56%
    21:00 +13°C° 0 mm 1 m/s 612 mmHg 57%
    22:00 +12°C° 0 mm 1 m/s 612 mmHg 55%
    23:00 +12°C° 0 mm 1 m/s 612 mmHg 54%

    5 Juin, Vendredi

    Heure Température Précipitation Vent Pression Humidité
    00:00 +12°C° 0 mm 1 m/s 612 mmHg 53%
    01:00 +11°C° 0 mm 1 m/s 612 mmHg 51%
    02:00 +10°C° 0 mm 2 m/s 613 mmHg 50%
    03:00 +10°C° 0 mm 2 m/s 613 mmHg 48%
    04:00 +10°C° 0 mm 2 m/s 613 mmHg 53%
    05:00 +12°C° 0 mm 1 m/s 614 mmHg 57%
    06:00 +13°C° 0 mm 1 m/s 614 mmHg 62%
    07:00 +14°C° 0 mm 2 m/s 615 mmHg 56%
    08:00 +16°C° 0 mm 2 m/s 615 mmHg 50%
    09:00 +18°C° 0 mm 2 m/s 616 mmHg 44%
    10:00 +19°C° 0 mm 3 m/s 616 mmHg 43%
    11:00 +19°C° 0 mm 4 m/s 616 mmHg 42%
    12:00 +20°C° 0 mm 5 m/s 616 mmHg 41%
    13:00 +20°C° 0.1 mm 4 m/s 616 mmHg 41%
    14:00 +20°C° 0.1 mm 4 m/s 616 mmHg 41%
    15:00 +20°C° 0.1 mm 4 m/s 616 mmHg 41%
    16:00 +19°C° 0.1 mm 3 m/s 615 mmHg 47%
    17:00 +18°C° 0.1 mm 3 m/s 615 mmHg 54%
    18:00 +17°C° 0.1 mm 2 m/s 615 mmHg 60%
    19:00 +15°C° 0.1 mm 2 m/s 615 mmHg 63%
    20:00 +14°C° 0.1 mm 2 m/s 614 mmHg 65%
    21:00 +12°C° 0.1 mm 2 m/s 614 mmHg 68%
    22:00 +10°C° 0 mm 2 m/s 614 mmHg 68%
    23:00 +10°C° 0 mm 2 m/s 614 mmHg 69%

    6 Juin, Samedi

    Heure Température Précipitation Vent Pression Humidité
    00:00 +10°C° 0 mm 2 m/s 614 mmHg 69%
    01:00 +9°C° 0 mm 2 m/s 614 mmHg 70%
    02:00 +9°C° 0 mm 2 m/s 614 mmHg 71%
    03:00 +9°C° 0 mm 2 m/s 614 mmHg 72%
    04:00 +10°C° 0 mm 2 m/s 614 mmHg 73%
    05:00 +11°C° 0 mm 1 m/s 615 mmHg 75%
    06:00 +12°C° 0 mm 1 m/s 615 mmHg 76%
    07:00 +14°C° 0.1 mm 2 m/s 616 mmHg 71%
    08:00 +16°C° 0.1 mm 2 m/s 616 mmHg 65%
    09:00 +17°C° 0.1 mm 2 m/s 617 mmHg 60%
    10:00 +18°C° 0.3 mm 2 m/s 617 mmHg 57%
    11:00 +19°C° 0.3 mm 2 m/s 617 mmHg 54%
    12:00 +20°C° 0.3 mm 2 m/s 617 mmHg 51%
    13:00 +20°C° 0.7 mm 2 m/s 617 mmHg 52%
    14:00 +20°C° 0.7 mm 2 m/s 616 mmHg 53%
    15:00 +20°C° 0.7 mm 2 m/s 616 mmHg 54%
    16:00 +19°C° 0.7 mm 2 m/s 616 mmHg 60%
    17:00 +18°C° 0.7 mm 2 m/s 616 mmHg 66%
    18:00 +17°C° 0.7 mm 2 m/s 616 mmHg 72%
    19:00 +15°C° 0.1 mm 2 m/s 615 mmHg 76%
    20:00 +13°C° 0.1 mm 2 m/s 615 mmHg 79%
    21:00 +12°C° 0.1 mm 2 m/s 615 mmHg 83%
    22:00 +10°C° 0 mm 2 m/s 615 mmHg 82%
    23:00 +10°C° 0 mm 2 m/s 615 mmHg 81%

    7 Juin, Dimanche

    Heure Température Précipitation Vent Pression Humidité
    00:00 +11°C° 0 mm 1 m/s 615 mmHg 81%
    01:00 +10°C° 0 mm 1 m/s 614 mmHg 80%
    02:00 +10°C° 0 mm 1 m/s 614 mmHg 80%
    03:00 +9°C° 0 mm 1 m/s 614 mmHg 80%
    04:00 +10°C° 0 mm 1 m/s 614 mmHg 79%
    05:00 +11°C° 0 mm 1 m/s 615 mmHg 77%
    06:00 +12°C° 0 mm 1 m/s 615 mmHg 76%
    07:00 +14°C° 0 mm 1 m/s 616 mmHg 70%
    08:00 +16°C° 0 mm 1 m/s 616 mmHg 64%
    09:00 +19°C° 0 mm 1 m/s 617 mmHg 58%
    10:00 +20°C° 0 mm 1 m/s 617 mmHg 54%
    11:00 +20°C° 0 mm 2 m/s 617 mmHg 51%
    12:00 +21°C° 0 mm 2 m/s 617 mmHg 48%
    13:00 +21°C° 0 mm 2 m/s 617 mmHg 47%
    14:00 +22°C° 0 mm 1 m/s 617 mmHg 47%
    15:00 +23°C° 0 mm 1 m/s 617 mmHg 47%
    16:00 +22°C° 0.1 mm 1 m/s 616 mmHg 54%
    17:00 +21°C° 0.1 mm 1 m/s 616 mmHg 61%
    18:00 +21°C° 0.1 mm 1 m/s 616 mmHg 68%
    19:00 +19°C° 0 mm 1 m/s 615 mmHg 72%
    20:00 +16°C° 0 mm 1 m/s 615 mmHg 77%
    21:00 +14°C° 0 mm 1 m/s 615 mmHg 81%
    22:00 +13°C° 0 mm 1 m/s 614 mmHg 80%
    23:00 +13°C° 0 mm 2 m/s 614 mmHg 78%
    Voir plus